FW0825 Weather Reports


time (UTC)temp
F
wind
direction
speed
knots
gust
knots
rain 1hr
in
rain 24hr
in
rain mn
in
humidity
%
barometer
mb
20260506014838 52 324 1.7 4.3 0.00 0.00 0.00 54 1010.5
20260506014336 52 323 1.7 3.5 0.00 0.00 0.00 56 1010.1
20260506013836 52 309 1.7 3.5 0.00 0.00 0.00 52 1010.1
20260506013336 53 299 1.7 2.6 0.00 0.00 0.00 55 1010.0
20260506012836 53 297 1.7 2.6 0.00 0.00 0.00 56 1009.9
20260506012336 53 291 0.9 2.6 0.00 0.00 0.00 54 1009.8
20260506011837 53 292 1.7 2.6 0.00 0.00 0.00 53 1009.9
20260506011336 53 286 1.7 2.6 0.00 0.00 0.00 52 1009.8
20260506010836 53 310 1.7 3.5 0.00 0.00 0.00 52 1009.7
20260506010336 53 319 1.7 3.5 0.00 0.00 0.00 51 1009.7
20260506005836 53 300 1.7 3.5 0.00 0.00 0.00 50 1009.6
20260506005336 53 302 0.9 3.5 0.00 0.00 0.00 51 1009.6
20260506004835 54 303 0.9 2.6 0.00 0.00 0.00 50 1009.5
20260506004336 54 271 1.7 2.6 0.00 0.00 0.00 50 1009.5
20260506003836 54 271 1.7 2.6 0.00 0.00 0.00 52 1009.4
20260506003335 54 290 1.7 2.6 0.00 0.00 0.00 46 1009.5
20260506003309 54 291 1.7 3.5 0.00 0.00 0.00 51 1009.5
20260506002323 54 306 1.7 3.5 0.00 0.00 0.00 46 1009.4
20260506001823 55 298 2.6 6.1 0.00 0.00 0.00 49 1009.4
20260506001421 55 298 2.6 7.0 0.00 0.00 0.00 47 1009.3
20260506000324 55 292 3.5 6.1 0.00 0.00 0.00 45 1009.4
20260505235824 55 293 4.3 7.8 0.00 0.00 0.00 44 1009.3
20260505235548 55 294 4.3 7.8 0.00 0.00 0.00 46 1009.3
20260505234823 55 297 4.3 7.8 0.00 0.00 0.00 45 1009.3
20260505234324 55 334 4.3 7.8 0.00 0.00 0.00 46 1009.4
20260505233824 55 294 5.2 9.6 0.00 0.00 0.00 44 1009.4
20260505233542 55 311 6.1 11.3 0.00 0.00 0.00 45 1009.4
20260505232822 55 319 5.2 11.3 0.00 0.00 0.00 45 1009.5
20260505232322 55 332 6.1 10.4 0.00 0.00 0.00 45 1009.4
20260505231821 55 340 6.1 10.4 0.00 0.00 0.00 49 1009.5
20260505231321 55 302 5.2 10.4 0.00 0.00 0.00 47 1009.4
20260505230822 55 281 7.0 13.0 0.00 0.00 0.00 46 1009.5
20260505230543 55 325 7.0 13.0 0.00 0.00 0.00 46 1009.4
20260505225813 55 310 7.8 11.3 0.00 0.00 0.00 46 1009.7
20260505225307 56 333 7.0 11.3 0.00 0.00 0.00 46 1009.6
20260505225248 56 323 5.2 9.6 0.00 0.00 0.00 45 1009.6
20260505224255 56 284 5.2 13.0 0.00 0.00 0.00 43 1009.6
20260505224009 56 308 6.1 13.0 0.00 0.00 0.00 42 1009.5
20260505223243 56 312 7.0 11.3 0.00 0.00 0.00 45 1009.5
20260505222738 56 318 6.1 11.3 0.00 0.00 0.00 41 1009.5
20260505222230 56 301 7.0 12.2 0.00 0.00 0.00 44 1009.5
20260505221725 56 300 6.1 12.2 0.00 0.00 0.00 40 1009.5
20260505221218 56 292 5.2 9.6 0.00 0.00 0.00 43 1009.3
20260505220713 56 312 6.1 10.4 0.00 0.00 0.00 43 1009.5
20260505220207 56 269 6.1 11.3 0.00 0.00 0.00 44 1009.6
20260505215701 56 273 5.2 11.3 0.00 0.00 0.00 45 1009.5
20260505215155 56 276 4.3 9.6 0.00 0.00 0.00 46 1009.6
20260505214649 56 257 4.3 11.3 0.00 0.00 0.00 44 1009.6
20260505214143 56 300 6.1 12.2 0.00 0.00 0.00 47 1009.5
20260505213637 56 293 6.1 13.0 0.00 0.00 0.00 42 1009.6
20260505213131 55 255 7.8 13.0 0.00 0.00 0.00 41 1009.5
20260505212625 56 254 7.8 12.2 0.00 0.00 0.00 46 1009.7
20260505212119 56 277 7.8 12.2 0.00 0.00 0.00 43 1009.5
20260505211834 55 303 7.0 12.2 0.00 0.00 0.00 44 1009.6
20260505211106 55 319 7.8 13.0 0.00 0.00 0.00 43 1009.6
20260505210826 55 331 8.7 13.0 0.00 0.00 0.00 43 1009.6
20260505210055 55 316 7.8 13.9 0.00 0.00 0.00 44 1009.6
20260505205549 55 309 7.0 14.8 0.00 0.00 0.00 43 1009.6
20260505205043 55 299 6.1 14.8 0.00 0.00 0.00 41 1009.8
20260505204537 55 292 5.2 10.4 0.00 0.00 0.00 42 1009.7
20260505204030 55 333 6.1 11.3 0.00 0.00 0.00 42 1009.6
20260505203525 55 290 7.0 11.3 0.00 0.00 0.00 42 1009.7
20260505203019 55 252 7.8 11.3 0.00 0.00 0.00 42 1009.9
20260505202513 55 297 7.8 11.3 0.00 0.00 0.00 42 1010.0
20260505202006 55 288 7.8 13.9 0.00 0.00 0.00 40 1010.0
20260505201501 55 288 7.0 13.9 0.00 0.00 0.00 40 1009.9
20260505200955 55 259 7.8 12.2 0.00 0.00 0.00 39 1009.9
20260505200449 55 304 8.7 14.8 0.00 0.00 0.00 44 1009.9
20260505195947 55 297 8.7 14.8 0.00 0.00 0.00 43 1010.0
20260505195447 55 261 7.8 14.8 0.00 0.00 0.00 40 1010.0
20260505194947 55 304 7.8 13.0 0.00 0.00 0.00 42 1009.9
20260505194929 55 254 7.8 13.0 0.00 0.00 0.00 40 1010.1
20260505193948 55 258 6.1 10.4 0.00 0.00 0.00 43 1010.1
20260505193447 55 277 7.0 14.8 0.00 0.00 0.00 42 1010.0
20260505192947 55 245 8.7 16.5 0.00 0.00 0.00 41 1010.1
20260505192447 55 315 7.8 16.5 0.00 0.00 0.00 43 1010.1
20260505191946 55 275 7.8 13.9 0.00 0.00 0.00 39 1010.2
20260505191447 55 250 7.8 13.9 0.00 0.00 0.00 42 1010.3
20260505190946 55 275 7.8 13.9 0.00 0.00 0.00 45 1010.2
20260505190713 55 268 7.0 13.0 0.00 0.00 0.00 43 1010.1
20260505185947 55 261 7.8 16.5 0.00 0.00 0.00 41 1010.1
20260505185447 55 281 8.7 17.4 0.00 0.00 0.00 39 1010.1
20260505184947 54 246 7.0 17.4 0.00 0.00 0.00 38 1010.0
20260505184706 54 313 6.1 13.0 0.00 0.00 0.00 41 1010.1
20260505183947 54 319 7.0 10.4 0.00 0.00 0.00 46 1010.0
20260505183446 54 12 7.8 12.2 0.00 0.00 0.00 42 1010.1
20260505182947 54 275 8.7 13.0 0.00 0.00 0.00 46 1010.0
20260505182447 54 309 9.6 15.6 0.00 0.00 0.00 43 1010.0
20260505181947 54 335 9.6 15.6 0.00 0.00 0.00 44 1010.0
20260505181447 54 313 9.6 15.6 0.00 0.00 0.00 43 1010.1
20260505180947 53 280 8.7 15.6 0.00 0.00 0.00 41 1010.1
20260505180447 54 330 7.8 14.8 0.00 0.00 0.00 43 1010.0
20260505175947 54 279 7.8 14.8 0.00 0.00 0.00 42 1009.9
20260505175937 54 315 7.8 13.0 0.00 0.00 0.00 44 1009.8
20260505174947 53 325 7.8 13.9 0.00 0.00 0.00 43 1009.7
20260505174447 53 280 7.8 14.8 0.00 0.00 0.00 41 1009.7
20260505174205 53 293 7.8 15.6 0.00 0.00 0.00 39 1009.7
20260505173447 53 252 7.8 15.6 0.00 0.00 0.00 45 1009.7
20260505172947 53 249 7.8 13.9 0.00 0.00 0.00 43 1009.7
20260505172446 53 241 7.0 13.9 0.00 0.00 0.00 47 1009.7
20260505171946 53 290 7.8 15.6 0.00 0.00 0.00 48 1009.6
20260505171439 53 277 8.7 15.6 0.00 0.00 0.00 42 1009.7
20260505170933 53 313 7.8 12.2 0.00 0.00 0.00 46 1009.9
20260505170435 53 312 7.8 13.0 0.00 0.00 0.00 42 1009.9
20260505165936 53 319 7.0 13.0 0.00 0.00 0.00 41 1009.9
20260505165435 53 285 6.1 12.2 0.00 0.00 0.00 44 1009.9
20260505164935 53 296 8.7 14.8 0.00 0.00 0.00 45 1009.9
20260505164919 53 313 9.6 14.8 0.00 0.00 0.00 44 1009.8
20260505163934 53 331 7.8 12.2 0.00 0.00 0.00 45 1009.6
20260505163435 53 296 6.1 11.3 0.00 0.00 0.00 44 1009.6
20260505163158 53 244 6.1 10.4 0.00 0.00 0.00 48 1009.4
20260505162435 52 311 7.0 12.2 0.00 0.00 0.00 51 1009.6
20260505162158 52 293 7.8 15.6 0.00 0.00 0.00 46 1009.7
20260505161434 52 225 7.8 15.6 0.00 0.00 0.00 46 1009.7
20260505160934 52 293 7.8 17.4 0.00 0.00 0.00 48 1009.7
20260505160435 52 321 7.0 17.4 0.00 0.00 0.00 48 1009.8
20260505152905 51 255 6.1 11.3 0.00 0.00 0.00 49 1009.5
20260505152359 51 252 5.2 9.6 0.00 0.00 0.00 48 1009.6
20260505151853 51 307 6.1 12.2 0.00 0.00 0.00 50 1009.7
20260505151347 51 281 7.0 12.2 0.00 0.00 0.00 50 1009.6
20260505150841 51 257 7.0 10.4 0.00 0.00 0.00 50 1009.8
20260505150336 51 266 6.1 11.3 0.00 0.00 0.00 52 1009.8
20260505140224 49 302 6.1 9.6 0.00 0.00 0.00 56 1010.0
20260505124553 48 275 1.7 3.5 0.00 0.00 0.00 59 1009.8
20260505124047 48 265 1.7 3.5 0.00 0.00 0.00 59 1009.8
20260505123542 48 279 1.7 3.5 0.00 0.00 0.00 60 1009.8
20260505123302 48 280 1.7 3.5 0.00 0.00 0.00 58 1009.7
20260505122535 48 276 1.7 3.5 0.00 0.00 0.00 60 1009.8
20260505122036 48 287 1.7 4.3 0.00 0.00 0.00 59 1009.9
20260505121535 48 269 2.6 4.3 0.00 0.00 0.00 62 1010.0
20260505121257 48 282 2.6 5.2 0.00 0.00 0.00 60 1010.0
20260505120856 48 299 2.6 5.2 0.00 0.00 0.00 61 1009.5
20260505115756 48 302 2.6 5.2 0.00 0.00 0.00 62 1009.8
20260505115036 48 303 2.6 5.2 0.00 0.00 0.00 63 1009.5
20260505114535 48 280 3.5 7.0 0.00 0.00 0.00 61 1009.3
20260505114036 48 306 4.3 7.0 0.00 0.00 0.00 61 1009.8
20260505113537 48 315 4.3 7.0 0.00 0.00 0.00 59 1008.7
20260505113032 48 339 3.5 7.0 0.00 0.00 0.00 58 1008.9
20260505112532 48 333 2.6 7.8 0.00 0.00 0.00 59 1009.1
20260505112033 48 298 2.6 7.8 0.00 0.00 0.00 61 1008.5
20260505111531 48 355 2.6 7.0 0.00 0.00 0.00 61 1007.2
20260505111032 49 5 2.6 7.0 0.00 0.00 0.00 62 1007.6
20260505110755 49 319 2.6 5.2 0.00 0.00 0.00 62 1007.7
20260505102028 49 344 2.6 5.2 0.00 0.00 0.00 60 1007.4
20260505101747 49 323 2.6 5.2 0.00 0.00 0.00 61 1008.1
20260505101026 49 334 4.3 7.0 0.00 0.00 0.00 60 1007.6
20260505100527 49 313 3.5 7.8 0.00 0.00 0.00 61 1007.6
20260505100024 49 337 0.9 7.8 0.00 0.00 0.00 58 1007.6
20260505095523 49 56 0.0 1.7 0.00 0.00 0.00 58 1007.2
20260505095024 49 56 0.9 3.5 0.00 0.00 0.00 58 1006.9
20260505094521 49 313 0.9 5.2 0.00 0.00 0.00 59 1007.0
20260505094021 49 5 1.7 5.2 0.00 0.00 0.00 59 1007.2
20260505093749 49 348 1.7 7.0 0.00 0.00 0.00 59 1006.9
20260505093020 50 317 1.7 8.7 0.00 0.00 0.00 57 1007.1
20260505092514 50 355 1.7 8.7 0.00 0.00 0.00 59 1007.1
20260505092008 50 338 2.6 7.8 0.00 0.00 0.00 59 1007.2
20260505091502 50 313 3.5 10.4 0.00 0.00 0.00 59 1007.2
20260505090957 50 355 3.5 13.0 0.00 0.00 0.00 59 1007.2
20260505090450 50 340 4.3 13.0 0.00 0.00 0.00 59 1007.1
20260505085944 51 22 4.3 9.6 0.00 0.00 0.00 59 1006.9
20260505085439 51 343 2.6 7.8 0.00 0.00 0.00 60 1006.7
20260505084933 51 350 2.6 5.2 0.00 0.00 0.00 61 1006.7
20260505084426 51 322 3.5 5.2 0.00 0.00 0.00 58 1006.7
20260505083920 51 338 3.5 7.0 0.00 0.00 0.00 60 1006.6
20260505083415 51 322 3.5 7.0 0.00 0.00 0.00 58 1006.2
20260505082909 52 334 3.5 7.0 0.00 0.00 0.00 58 1006.2
20260505082402 52 344 3.5 7.8 0.00 0.00 0.00 59 1005.9
20260505081857 52 334 5.2 11.3 0.00 0.00 0.00 58 1005.8
20260505081352 52 338 5.2 11.3 0.00 0.00 0.00 57 1005.7
20260505080845 52 338 4.3 8.7 0.00 0.00 0.00 58 1005.5
20260505080338 53 355 5.2 9.6 0.00 0.00 0.00 58 1005.5
20260505080055 53 0 4.3 9.6 0.00 0.00 0.00 58 1005.2
20260505075326 53 332 3.5 10.4 0.00 0.00 0.00 57 1005.2
20260505074821 53 335 3.5 10.4 0.00 0.00 0.00 58 1005.1
20260505074314 53 329 4.3 9.6 0.00 0.00 0.00 56 1004.9
20260505073808 53 327 3.5 12.2 0.00 0.00 0.00 58 1004.9
20260505073302 54 304 3.5 12.2 0.00 0.00 0.00 55 1004.7
20260505072756 54 321 3.5 11.3 0.00 0.00 0.00 54 1004.5
20260505072250 55 344 3.5 11.3 0.00 0.00 0.00 58 1004.7
20260505071744 55 32 6.1 13.0 0.00 0.00 0.00 56 1004.6
20260505071502 55 328 7.0 13.0 0.00 0.00 0.00 56 1004.6
20260505070732 56 329 6.1 13.0 0.00 0.00 0.00 55 1004.3
20260505070707 56 345 7.0 13.0 0.00 0.00 0.00 56 1004.5
20260505065720 56 332 5.2 10.4 0.00 0.00 0.00 55 1004.4
20260505065214 56 299 3.5 5.2 0.00 0.00 0.00 54 1004.5
20260505064931 56 325 3.5 4.3 0.00 0.00 0.00 54 1004.4
20260505064202 56 315 3.5 5.2 0.00 0.00 0.00 53 1004.2
20260505063918 57 315 3.5 5.2 0.00 0.00 0.00 51 1004.0
20260505063151 57 312 3.5 5.2 0.00 0.00 0.00 51 1003.9
20260505063125 57 314 3.5 5.2 0.00 0.00 0.00 51 1004.1
20260505062406 57 313 3.5 7.0 0.00 0.00 0.00 52 1003.9
20260505061638 58 338 3.5 7.0 0.00 0.00 0.00 50 1003.9
20260505061137 58 313 4.3 6.1 0.00 0.00 0.00 49 1003.9
20260505060637 58 334 4.3 7.0 0.00 0.00 0.00 54 1003.9
20260505060137 58 311 4.3 7.8 0.00 0.00 0.00 47 1003.7
20260505055637 58 313 6.1 11.3 0.00 0.00 0.00 49 1003.7
20260505055622 59 321 7.0 11.3 0.00 0.00 0.00 48 1003.6
20260505054637 59 334 6.1 10.4 0.00 0.00 0.00 50 1003.7
20260505054358 59 327 6.1 13.0 0.00 0.00 0.00 48 1003.7
20260505054123 59 341 7.0 13.0 0.00 0.00 0.00 47 1003.7
20260505053137 59 314 6.1 11.3 0.00 0.00 0.00 46 1003.8
20260505052637 59 335 6.1 8.7 0.00 0.00 0.00 49 1003.7
20260505052137 59 329 4.3 8.7 0.00 0.00 0.00 48 1003.6
20260505051637 59 286 3.5 6.1 0.00 0.00 0.00 50 1003.5
20260505051137 59 296 3.5 6.1 0.00 0.00 0.00 48 1003.4
20260505050637 59 304 3.5 6.1 0.00 0.00 0.00 49 1003.1
20260505050131 60 297 3.5 7.0 0.00 0.00 0.00 48 1003.1
20260505041552 60 279 4.3 7.8 0.00 0.00 0.00 48 1002.8
20260505041052 61 288 3.5 7.8 0.00 0.00 0.00 49 1002.8
20260505040548 61 250 3.5 7.0 0.00 0.00 0.00 48 1002.7
20260505040048 61 279 3.5 7.0 0.00 0.00 0.00 49 1002.7
20260505035548 62 288 3.5 7.0 0.00 0.00 0.00 49 1002.6
20260505035047 62 277 5.2 8.7 0.00 0.00 0.00 48 1002.4
20260505034545 62 297 5.2 10.4 0.00 0.00 0.00 48 1002.3
20260505034046 63 302 4.3 10.4 0.00 0.00 0.00 49 1002.2
20260505034036 63 317 4.3 7.8 0.00 0.00 0.00 48 1002.3
20260505033045 64 290 5.2 8.7 0.00 0.00 0.00 46 1002.2
20260505032544 64 293 4.3 8.7 0.00 0.00 0.00 47 1002.0
20260505032044 65 283 4.3 7.8 0.00 0.00 0.00 46 1001.7
20260505031543 65 310 3.5 7.0 0.00 0.00 0.00 47 1001.7
20260505031305 65 291 3.5 9.6 0.00 0.00 0.00 46 1001.8
20260505030542 66 276 6.1 10.4 0.00 0.00 0.00 46 1002.0
20260505030042 66 283 7.0 10.4 0.00 0.00 0.00 44 1002.0
20260505025542 67 312 7.0 10.4 0.00 0.00 0.00 43 1002.0
20260505025314 67 317 7.8 12.2 0.00 0.00 0.00 45 1001.9
20260505024543 67 317 8.7 14.8 0.00 0.00 0.00 42 1001.6
20260505024044 68 303 8.7 14.8 0.00 0.00 0.00 42 1001.5
20260505024033 68 321 7.8 13.0 0.00 0.00 0.00 46 1001.3
20260505023042 69 346 7.0 13.0 0.00 0.00 0.00 46 1001.1
20260505022541 69 311 6.1 10.4 0.00 0.00 0.00 45 1000.9
20260505022042 69 319 6.1 9.6 0.00 0.00 0.00 45 1000.9
20260505021542 69 309 7.0 12.2 0.00 0.00 0.00 44 1000.9
20260505021041 70 315 8.7 16.5 0.00 0.00 0.00 43 1000.9
20260505020541 70 282 10.4 17.4 0.00 0.00 0.00 43 1000.9
20260505020040 70 336 8.7 17.4 0.00 0.00 0.00 46 1000.8
20260505015541 70 280 7.0 17.4 0.00 0.00 0.00 52 1000.5